Springfield, MO

6:06 PM CST on December 15, 2019 (GMT -0600)
Springfield-Branson Regional

Weather History for KSGF - October, 2019

Change the Weather History Date:

Tuesday, October 15, 2019

  Actual Average Record
Temperature  
Mean Temperature 58 °F 58 °F  
Max Temperature 71 °F 69 °F 86 °F (1963)
Min Temperature 46 °F 47 °F 31 °F (1986)
Degree Days  
Heating Degree Days 6 8  
Month to date heating degree days 92  
Since 1 July heating degree days 147  
Cooling Degree Days 0 1  
Month to date cooling degree days 21  
Year to date cooling degree days 1380  
Growing Degree Days 8 (Base 50)    
Moisture  
Dew Point 56 °F    
Average Humidity 83    
Maximum Humidity 94    
Minimum Humidity 63    
Precipitation  
Precipitation 0.28 in 0.11 in 1.68 in (1967)
Month to date precipitation 1.72  
Year to date precipitation 36.44  
Snow  
Snow 0.00 in - - ()
Month to date snowfall  
Since 1 July snowfall  
Since 1 September snowfall  
Snow Depth -    
Sea Level Pressure  
Sea Level Pressure 29.93 in    
Wind  
Wind Speed 11 mph (WSW)    
Max Wind Speed 16 mph    
Max Gust Speed 37 mph    
Visibility 9 miles    
Events Rain , Thunderstorm    
T = Trace of Precipitation, MM = Missing Value Source: NWS Daily Summary

Daily Weather History Graph

Daily Weather History Graph

Search for Another Location

Airport or City:

Astronomy

Oct. 15, 2019 Rise Set
Actual Time 7:21 AM CDT 6:36 PM CDT
Civil Twilight 6:55 AM CDT 7:03 PM CDT
Nautical Twilight 6:24 AM CDT 7:33 PM CDT
Astronomical Twilight 5:54 AM CDT 8:03 PM CDT
Moon 7:58 PM CDT (10/15) 8:51 AM CDT (10/15)
Length of Visible Light 12h 08m
Length of Day
11h 15m
Full, 97% of the Moon is Illuminated
Oct 15
Full
Oct 21
Last Quarter
Oct 27
New
Nov 4
First Quarter
Nov 12
Full

Hourly Weather History & Observations

Time (CDT) Temp. Windchill Dew Point Humidity Pressure Visibility Wind Dir Wind Speed Gust Speed Precip Events Conditions
12:52 AM 57.9 °F - 48.9 °F 72% 29.92 in 10.0 mi SSE 15.0 mph - N/A   Partly Cloudy
1:52 AM 57.0 °F - 50.0 °F 77% 29.91 in 10.0 mi SSE 13.8 mph - N/A   Clear
2:52 AM 55.9 °F - 50.0 °F 80% 29.91 in 10.0 mi South 9.2 mph - N/A   Clear
3:07 AM 57.0 °F - 51.1 °F 81% 29.94 in 10.0 mi SSE 11.5 mph - N/A   Mostly Cloudy
3:52 AM 57.9 °F - 52.0 °F 81% 29.91 in 10.0 mi SSE 9.2 mph - N/A   Overcast
4:52 AM 60.1 °F - 54.0 °F 80% 29.89 in 10.0 mi South 9.2 mph - N/A   Overcast
5:02 AM 60.1 °F - 54.0 °F 80% 29.92 in 10.0 mi South 9.2 mph - N/A   Overcast
5:31 AM 60.1 °F - 54.0 °F 80% 29.92 in 10.0 mi SSE 10.4 mph - N/A   Overcast
5:52 AM 60.1 °F - 55.0 °F 83% 29.90 in 10.0 mi SSE 11.5 mph - N/A   Overcast
6:08 AM 60.1 °F - 55.0 °F 83% 29.92 in 10.0 mi South 9.2 mph - N/A   Overcast
6:52 AM 61.0 °F - 57.0 °F 87% 29.90 in 10.0 mi South 6.9 mph - N/A   Overcast
8:52 AM 63.0 °F - 59.0 °F 87% 29.89 in 10.0 mi South 10.4 mph - N/A   Overcast
9:52 AM 64.9 °F - 61.0 °F 87% 29.90 in 9.0 mi South 8.1 mph - N/A   Overcast
10:52 AM 66.9 °F - 62.1 °F 84% 29.91 in 9.0 mi South 6.9 mph - N/A   Overcast
11:29 AM 68.0 °F - 62.1 °F 81% 29.92 in 10.0 mi South 6.9 mph - N/A   Overcast
11:52 AM 69.1 °F - 62.1 °F 78% 29.90 in 10.0 mi SW 5.8 mph - N/A   Overcast
12:12 PM 71.1 °F - 63.0 °F 75% 29.91 in 10.0 mi South 5.8 mph - N/A   Overcast
12:40 PM 71.1 °F - 63.0 °F 75% 29.90 in 10.0 mi South 6.9 mph - N/A   Overcast
12:52 PM 71.1 °F - 64.0 °F 78% 29.88 in 10.0 mi SSW 10.4 mph - N/A   Overcast
1:15 PM 70.0 °F - 63.0 °F 78% 29.90 in 10.0 mi SSW 9.2 mph - N/A   Overcast
1:52 PM 70.0 °F - 64.0 °F 81% 29.87 in 10.0 mi SSW 6.9 mph - N/A   Overcast
2:00 PM 70.0 °F - 64.0 °F 81% 29.89 in 10.0 mi SSW 6.9 mph - N/A   Overcast
2:34 PM 70.0 °F - 64.9 °F 84% 29.89 in 7.0 mi WSW 5.8 mph - 0.00 in Rain Light Rain
2:52 PM 70.0 °F - 64.9 °F 84% 29.86 in 9.0 mi SW 4.6 mph - 0.00 in   Overcast
3:00 PM 69.1 °F - 64.0 °F 84% 29.89 in 7.0 mi NW 12.7 mph 23.0 mph N/A   Overcast
3:07 PM 68.0 °F - 64.0 °F 87% 29.89 in 8.0 mi NW 9.2 mph 23.0 mph 0.00 in Rain Light Rain
3:52 PM 68.0 °F - 63.0 °F 84% 29.86 in 10.0 mi NNW 11.5 mph - 0.00 in   Overcast
4:01 PM 66.9 °F - 62.1 °F 84% 29.88 in 10.0 mi NNW 12.7 mph - N/A   Overcast
4:29 PM 66.0 °F - 61.0 °F 84% 29.89 in 9.0 mi North 9.2 mph - N/A   Overcast
4:52 PM 64.0 °F - 61.0 °F 90% 29.89 in 4.0 mi North 16.1 mph 25.3 mph 0.00 in Rain Light Rain
5:15 PM 59.0 °F - 53.1 °F 81% 29.94 in 9.0 mi NNW 13.8 mph 25.3 mph 0.00 in Rain Light Rain
5:42 PM 55.0 °F - 51.1 °F 86% 29.95 in 6.0 mi North 15.0 mph 36.8 mph 0.00 in Rain , Thunderstorm Light Rain
5:49 PM 53.6 °F - 51.8 °F 94% 29.96 in 1.8 mi North 16.1 mph - 0.02 in Rain , Thunderstorm Heavy Rain
5:52 PM 54.0 °F - 51.1 °F 90% 29.96 in 1.2 mi North 10.4 mph - 0.07 in Rain , Thunderstorm Heavy Rain
6:00 PM 54.0 °F - 51.1 °F 90% 29.97 in 2.0 mi North 11.5 mph - 0.12 in Rain , Thunderstorm Light Rain
6:06 PM 54.0 °F - 51.1 °F 90% 29.98 in 9.0 mi NNW 13.8 mph - 0.12 in Rain , Thunderstorm Light Thunderstorms and Rain
6:23 PM 53.1 °F - 50.0 °F 89% 29.96 in 2.0 mi NNW 11.5 mph - 0.18 in Rain Light Rain
6:27 PM 53.1 °F - 51.1 °F 93% 29.97 in 4.0 mi NNW 9.2 mph - 0.18 in Rain , Thunderstorm Light Rain
6:48 PM 53.6 °F - 50.0 °F 88% 29.97 in 10.0 mi North 9.2 mph - 0.20 in   Overcast
6:52 PM 53.1 °F - 50.0 °F 89% 29.97 in 10.0 mi North 9.2 mph - 0.20 in   Overcast
7:52 PM 53.1 °F - 50.0 °F 89% 29.97 in 10.0 mi NNW 4.6 mph - N/A   Overcast
8:52 PM 52.0 °F - 48.9 °F 89% 30.00 in 10.0 mi NW 5.8 mph - N/A   Partly Cloudy
9:52 PM 51.1 °F - 43.0 °F 74% 30.03 in 10.0 mi NNW 12.7 mph - N/A   Clear
10:52 PM 46.9 °F - 39.9 °F 77% 30.05 in 10.0 mi NNW 10.4 mph - N/A   Clear
11:52 PM 46.0 °F 40.2 °F 39.0 °F 76% 30.06 in 10.0 mi NNW 12.7 mph - N/A   Clear